TKY730W UKOO-EPGD

Flight info

Callsign TKY730W
Flight time N/A
Altitude 38000
Route ODSAN P156 NIROV N191 SITBA DCT TOLPA/N0454F400 DCT RILAB T270 OSLOG
Aircraft A339/H-SADE1E2E3GHIJ3J5M1P2RWXY/LB2D1

Departure

Time 2026-05-03 22:45
Airport Odesa International Airport (UKOO)

Arrival

Time N/A
Airport Gdańsk Lech Wałęsa Airport (EPGD)
Time Latitude Longitude Altitude Speed Heading
2026-05-03 22:22 46.44226 30.67359 187 ft 0 kts 76°
2026-05-03 22:30 46.44225 30.67355 188 ft 2 kts 77°
2026-05-03 22:30 46.44223 30.67333 188 ft 2 kts 97°
2026-05-03 22:31 46.44227 30.67312 188 ft 2 kts 112°
2026-05-03 22:31 46.44234 30.67293 188 ft 2 kts 129°
2026-05-03 22:31 46.44244 30.67278 188 ft 2 kts 144°
2026-05-03 22:31 46.44257 30.67267 188 ft 2 kts 160°
2026-05-03 22:32 46.44272 30.67263 188 ft 2 kts 173°
2026-05-03 22:32 46.44287 30.67259 188 ft 2 kts 171°
2026-05-03 22:32 46.44301 30.67256 188 ft 2 kts 169°
2026-05-03 22:32 46.44316 30.67252 188 ft 2 kts 170°
2026-05-03 22:33 46.44328 30.67249 188 ft 0 kts 170°
2026-05-03 22:35 46.44326 30.67249 188 ft 1 kts 170°
2026-05-03 22:35 46.44308 30.67254 187 ft 3 kts 170°
2026-05-03 22:35 46.44272 30.67263 188 ft 6 kts 170°
2026-05-03 22:35 46.44219 30.67277 187 ft 8 kts 171°
2026-05-03 22:36 46.44149 30.67293 186 ft 11 kts 171°
2026-05-03 22:36 46.44076 30.67311 185 ft 11 kts 170°
2026-05-03 22:36 46.44002 30.67333 184 ft 8 kts 166°
2026-05-03 22:36 46.43948 30.67372 184 ft 9 kts 126°
2026-05-03 22:37 46.43932 30.67463 184 ft 8 kts 123°
2026-05-03 22:37 46.43875 30.67514 184 ft 10 kts 159°
2026-05-03 22:37 46.43800 30.67548 184 ft 12 kts 163°
2026-05-03 22:37 46.43706 30.67589 182 ft 15 kts 163°
2026-05-03 22:38 46.43601 30.67636 181 ft 16 kts 163°
2026-05-03 22:38 46.43488 30.67686 181 ft 17 kts 163°
2026-05-03 22:38 46.43373 30.67735 181 ft 17 kts 163°
2026-05-03 22:38 46.43254 30.67786 181 ft 18 kts 163°
2026-05-03 22:39 46.43132 30.67838 181 ft 18 kts 163°
2026-05-03 22:39 46.43006 30.67891 180 ft 19 kts 164°
2026-05-03 22:39 46.42874 30.67948 179 ft 20 kts 163°
2026-05-03 22:39 46.42736 30.68008 178 ft 20 kts 164°
2026-05-03 22:40 46.42597 30.68066 178 ft 20 kts 164°
2026-05-03 22:40 46.42459 30.68125 178 ft 20 kts 163°
2026-05-03 22:40 46.42321 30.68184 178 ft 20 kts 163°
2026-05-03 22:40 46.42178 30.68244 177 ft 21 kts 163°
2026-05-03 22:41 46.42038 30.68304 177 ft 21 kts 163°
2026-05-03 22:41 46.41897 30.68364 176 ft 21 kts 163°
2026-05-03 22:41 46.41763 30.68421 174 ft 14 kts 163°
2026-05-03 22:41 46.41665 30.68463 174 ft 13 kts 164°
2026-05-03 22:42 46.41592 30.68494 174 ft 5 kts 163°
2026-05-03 22:42 46.41556 30.68498 174 ft 5 kts 207°
2026-05-03 22:42 46.41534 30.68436 174 ft 8 kts 256°
2026-05-03 22:42 46.41517 30.68346 174 ft 10 kts 255°
2026-05-03 22:43 46.41498 30.68242 174 ft 11 kts 256°
2026-05-03 22:43 46.41474 30.68124 174 ft 12 kts 255°
2026-05-03 22:43 46.41455 30.68037 174 ft 5 kts 251°
2026-05-03 22:43 46.41442 30.67978 175 ft 6 kts 258°
2026-05-03 22:44 46.41440 30.67912 176 ft 6 kts 275°
2026-05-03 22:44 46.41452 30.67850 177 ft 6 kts 300°
2026-05-03 22:44 46.41490 30.67820 178 ft 7 kts 345°
2026-05-03 22:44 46.41572 30.67786 177 ft 29 kts 343°
2026-05-03 22:45 46.42003 30.67599 174 ft 96 kts 343°
2026-05-03 22:45 46.42832 30.67242 181 ft 150 kts 344°
2026-05-03 22:45 46.43881 30.66754 611 ft 161 kts 343°
2026-05-03 22:45 46.44900 30.66274 1337 ft 154 kts 347°
2026-05-03 22:46 46.45906 30.65852 1989 ft 152 kts 349°
2026-05-03 22:46 46.46963 30.65423 2410 ft 167 kts 348°
2026-05-03 22:46 46.48143 30.64935 2818 ft 184 kts 348°
2026-05-03 22:46 46.49414 30.64397 3223 ft 201 kts 348°
2026-05-03 22:47 46.50829 30.63792 3627 ft 220 kts 348°
2026-05-03 22:47 46.52354 30.63133 4075 ft 238 kts 348°
2026-05-03 22:47 46.54007 30.62415 4586 ft 254 kts 348°
2026-05-03 22:47 46.55721 30.61664 5368 ft 259 kts 348°
2026-05-03 22:48 46.57439 30.60990 6220 ft 259 kts 353°
2026-05-03 22:48 46.59199 30.60440 7058 ft 260 kts 354°
2026-05-03 22:48 46.60954 30.59911 7826 ft 263 kts 354°
2026-05-03 22:48 46.62751 30.59372 8589 ft 266 kts 354°
2026-05-03 22:49 46.64565 30.58825 9353 ft 269 kts 354°
2026-05-03 22:49 46.66395 30.58271 10101 ft 272 kts 355°
2026-05-03 22:49 46.68271 30.57708 10652 ft 283 kts 354°
2026-05-03 22:49 46.70261 30.57115 10989 ft 301 kts 354°
2026-05-03 22:50 46.72370 30.56482 11446 ft 314 kts 354°
2026-05-03 22:50 46.74522 30.55827 12149 ft 319 kts 354°
2026-05-03 22:50 46.76687 30.55163 12878 ft 323 kts 354°
2026-05-03 22:50 46.78895 30.54485 13590 ft 327 kts 354°
2026-05-03 22:51 46.81132 30.53801 14279 ft 331 kts 354°
2026-05-03 22:51 46.83395 30.53107 14973 ft 335 kts 354°
2026-05-03 22:51 46.85684 30.52406 15667 ft 339 kts 354°
2026-05-03 22:51 46.87980 30.51702 16351 ft 343 kts 354°
2026-05-03 22:52 46.90314 30.50986 17040 ft 347 kts 354°
2026-05-03 22:52 46.92690 30.50258 17719 ft 350 kts 354°
2026-05-03 22:52 46.95067 30.49529 18361 ft 354 kts 355°
2026-05-03 22:52 46.97503 30.48780 19024 ft 358 kts 354°
2026-05-03 22:53 46.99914 30.48042 19649 ft 361 kts 354°
2026-05-03 22:53 47.02380 30.47287 20249 ft 366 kts 353°
2026-05-03 22:53 47.04886 30.46513 20821 ft 370 kts 353°
2026-05-03 22:53 47.07405 30.45734 21364 ft 375 kts 353°
2026-05-03 22:54 47.09990 30.44935 21917 ft 380 kts 353°
2026-05-03 22:54 47.12551 30.44138 22439 ft 384 kts 352°
2026-05-03 22:54 47.15169 30.43064 22951 ft 391 kts 345°
2026-05-03 22:54 47.17699 30.41572 23483 ft 397 kts 339°
2026-05-03 22:55 47.20169 30.39705 24016 ft 402 kts 335°
2026-05-03 22:55 47.22619 30.37731 24511 ft 406 kts 335°
2026-05-03 22:55 47.25087 30.35718 24972 ft 410 kts 335°
2026-05-03 22:55 47.27588 30.33684 25420 ft 414 kts 334°
2026-05-03 22:56 47.30134 30.31613 25862 ft 418 kts 334°
2026-05-03 22:56 47.32658 30.29561 26293 ft 422 kts 334°
2026-05-03 22:56 47.35271 30.27439 26736 ft 426 kts 334°
2026-05-03 22:56 47.37868 30.25334 27165 ft 429 kts 334°
2026-05-03 22:57 47.40477 30.23215 27566 ft 432 kts 334°
2026-05-03 22:57 47.43114 30.21072 27976 ft 436 kts 334°
2026-05-03 22:57 47.45759 30.18916 28366 ft 439 kts 334°
2026-05-03 22:57 47.48442 30.16732 28769 ft 442 kts 334°
2026-05-03 22:58 47.51165 30.14507 29164 ft 445 kts 334°
2026-05-03 22:58 47.53881 30.12294 29544 ft 448 kts 334°
2026-05-03 22:58 47.56593 30.10079 29880 ft 451 kts 334°
2026-05-03 22:58 47.59343 30.07828 30233 ft 454 kts 334°
2026-05-03 22:59 47.62131 30.05540 30636 ft 456 kts 334°
2026-05-03 22:59 47.64884 30.03276 31012 ft 457 kts 334°
2026-05-03 22:59 47.67662 30.00988 31403 ft 458 kts 334°
2026-05-03 22:59 47.70414 29.98726 31763 ft 459 kts 334°
2026-05-03 23:00 47.73222 29.96415 32101 ft 461 kts 335°
2026-05-03 23:00 47.76032 29.94101 32433 ft 463 kts 335°
2026-05-03 23:00 47.78847 29.91780 32768 ft 464 kts 334°
2026-05-03 23:00 47.81662 29.89454 33061 ft 466 kts 335°
2026-05-03 23:01 47.84505 29.87100 33362 ft 468 kts 335°
2026-05-03 23:01 47.87320 29.84766 33652 ft 470 kts 335°
2026-05-03 23:01 47.90187 29.82388 33942 ft 472 kts 335°
2026-05-03 23:01 47.93056 29.80004 34212 ft 474 kts 335°
2026-05-03 23:02 47.95906 29.77631 34478 ft 476 kts 335°
2026-05-03 23:02 47.98791 29.75227 34702 ft 478 kts 335°
2026-05-03 23:02 48.01699 29.72801 34915 ft 480 kts 334°
2026-05-03 23:02 48.04595 29.70382 35139 ft 481 kts 334°
2026-05-03 23:03 48.07525 29.67870 35366 ft 483 kts 333°
2026-05-03 23:03 48.10366 29.65315 35593 ft 484 kts 332°
2026-05-03 23:03 48.13247 29.62687 35807 ft 486 kts 332°
2026-05-03 23:03 48.16149 29.60024 36022 ft 487 kts 332°
2026-05-03 23:04 48.19013 29.57397 36235 ft 487 kts 332°
2026-05-03 23:04 48.21917 29.54730 36429 ft 488 kts 332°
2026-05-03 23:04 48.24776 29.52102 36628 ft 489 kts 332°
2026-05-03 23:04 48.27683 29.49431 36812 ft 491 kts 332°
2026-05-03 23:05 48.30594 29.46750 37277 ft 486 kts 332°
2026-05-03 23:05 48.33426 29.44137 37791 ft 479 kts 331°
2026-05-03 23:05 48.36241 29.41539 38069 ft 479 kts 331°
2026-05-03 23:06 48.41896 29.36307 38088 ft 478 kts 331°
2026-05-03 23:06 48.47565 29.31049 38083 ft 478 kts 330°
2026-05-03 23:07 48.53222 29.25788 38087 ft 477 kts 331°
2026-05-03 23:07 48.58851 29.20541 38085 ft 477 kts 331°
2026-05-03 23:08 48.64481 29.15280 38088 ft 475 kts 331°
2026-05-03 23:08 48.70070 29.10042 38081 ft 475 kts 331°
2026-05-03 23:09 48.75662 29.04787 38083 ft 475 kts 331°
2026-05-03 23:09 48.81260 28.99508 38076 ft 474 kts 331°
2026-05-03 23:10 48.86833 28.94239 38072 ft 474 kts 331°
2026-05-03 23:10 48.92258 28.88505 38073 ft 476 kts 324°
2026-05-03 23:11 48.97129 28.81712 38075 ft 478 kts 316°
2026-05-03 23:11 49.01352 28.73948 38080 ft 481 kts 308°
2026-05-03 23:12 49.05054 28.65486 38074 ft 481 kts 306°
2026-05-03 23:12 49.08680 28.56937 38067 ft 481 kts 306°
2026-05-03 23:13 49.12304 28.48402 38069 ft 481 kts 306°
2026-05-03 23:13 49.15928 28.39869 38067 ft 480 kts 306°
2026-05-03 23:14 49.19531 28.31367 38065 ft 480 kts 305°
2026-05-03 23:14 49.23156 28.22786 38069 ft 480 kts 305°
2026-05-03 23:15 49.26764 28.14218 38063 ft 479 kts 305°
2026-05-03 23:15 49.30362 28.05641 38067 ft 479 kts 305°
2026-05-03 23:16 49.33939 27.97085 38064 ft 479 kts 305°
2026-05-03 23:16 49.37509 27.88521 38062 ft 478 kts 306°
2026-05-03 23:17 49.41292 27.80207 38063 ft 477 kts 310°
2026-05-03 23:17 49.45287 27.72082 38056 ft 476 kts 310°
2026-05-03 23:18 49.49266 27.63981 38058 ft 476 kts 310°
2026-05-03 23:18 49.53224 27.55880 38052 ft 475 kts 310°
2026-05-03 23:19 49.57162 27.47786 38053 ft 474 kts 310°
2026-05-03 23:19 49.61099 27.39666 38054 ft 474 kts 310°
2026-05-03 23:20 49.65020 27.31553 38058 ft 474 kts 309°
2026-05-03 23:20 49.68924 27.23451 38052 ft 474 kts 309°
2026-05-03 23:21 49.72843 27.15291 38047 ft 474 kts 309°
2026-05-03 23:21 49.76753 27.07126 38053 ft 473 kts 309°
2026-05-03 23:22 49.82583 26.94904 38049 ft 471 kts 309°
2026-05-03 23:22 49.86458 26.86746 38051 ft 471 kts 309°
2026-05-03 23:23 49.90312 26.78612 38047 ft 471 kts 309°
2026-05-03 23:23 49.94175 26.70432 38046 ft 472 kts 309°
2026-05-03 23:24 49.98059 26.62184 38045 ft 472 kts 309°
2026-05-03 23:24 50.01897 26.54005 38049 ft 471 kts 309°
2026-05-03 23:25 50.05756 26.45754 38051 ft 471 kts 309°
2026-05-03 23:25 50.09585 26.37543 38051 ft 470 kts 309°
2026-05-03 23:26 50.13409 26.29321 38055 ft 471 kts 308°
2026-05-03 23:26 50.17249 26.21038 38055 ft 471 kts 308°
2026-05-03 23:27 50.21093 26.12716 38056 ft 471 kts 308°
2026-05-03 23:27 50.24917 26.04413 38061 ft 470 kts 308°
2026-05-03 23:28 50.28703 25.96168 38068 ft 470 kts 308°
2026-05-03 23:28 50.32499 25.87873 38078 ft 470 kts 308°
2026-05-03 23:29 50.36308 25.79527 38076 ft 470 kts 308°
2026-05-03 23:29 50.40091 25.71210 38078 ft 470 kts 308°
2026-05-03 23:30 50.43858 25.62900 38070 ft 469 kts 308°
2026-05-03 23:30 50.47636 25.54543 38066 ft 469 kts 308°
2026-05-03 23:31 50.51377 25.46236 38073 ft 468 kts 308°
2026-05-03 23:31 50.55132 25.37875 38071 ft 468 kts 308°
2026-05-03 23:32 50.58877 25.29508 38069 ft 468 kts 307°
2026-05-03 23:32 50.62628 25.21102 38073 ft 468 kts 307°
2026-05-03 23:33 50.66357 25.12720 38075 ft 468 kts 307°
2026-05-03 23:33 50.70063 25.04361 38070 ft 467 kts 307°
2026-05-03 23:34 50.73774 24.95964 38067 ft 467 kts 307°
2026-05-03 23:34 50.77491 24.87527 38069 ft 467 kts 307°
2026-05-03 23:35 50.81165 24.79160 38071 ft 467 kts 307°
2026-05-03 23:35 50.84863 24.70709 38071 ft 467 kts 307°
2026-05-03 23:36 50.88553 24.62257 38062 ft 467 kts 307°
2026-05-03 23:36 50.92233 24.53796 38065 ft 467 kts 307°
2026-05-03 23:37 50.95892 24.45351 38059 ft 467 kts 307°
2026-05-03 23:37 50.99554 24.36874 38063 ft 467 kts 307°
2026-05-03 23:38 51.03220 24.28360 38069 ft 466 kts 306°
2026-05-03 23:38 51.06884 24.19823 38053 ft 466 kts 306°
2026-05-03 23:39 51.10498 24.11374 38056 ft 466 kts 306°
2026-05-03 23:39 51.14151 24.02804 38056 ft 466 kts 306°
2026-05-03 23:40 51.17764 23.94303 38065 ft 466 kts 306°
2026-05-03 23:40 51.21389 23.85742 38051 ft 466 kts 306°
2026-05-03 23:41 51.25019 23.77135 38055 ft 466 kts 306°
2026-05-03 23:41 51.28635 23.68548 38050 ft 465 kts 307°
2026-05-03 23:42 51.32530 23.60413 38043 ft 463 kts 312°
2026-05-03 23:42 51.36700 23.52603 38041 ft 463 kts 313°
2026-05-03 23:43 51.40887 23.44793 38041 ft 464 kts 313°
2026-05-03 23:43 51.45058 23.36973 38039 ft 464 kts 312°
2026-05-03 23:44 51.49220 23.29132 38035 ft 463 kts 311°
2026-05-03 23:44 51.53383 23.21261 38033 ft 463 kts 311°
2026-05-03 23:45 51.57538 23.13379 38031 ft 463 kts 311°
2026-05-03 23:45 51.61708 23.05445 38030 ft 462 kts 311°
2026-05-03 23:46 51.65848 22.97556 38030 ft 463 kts 313°
2026-05-03 23:46 51.70505 22.90488 38027 ft 462 kts 320°
2026-05-03 23:47 51.75308 22.83662 38030 ft 462 kts 320°
2026-05-03 23:47 51.80120 22.76743 38027 ft 462 kts 319°
2026-05-03 23:48 51.84863 22.69859 38025 ft 461 kts 319°
2026-05-03 23:48 51.89632 22.62897 38025 ft 460 kts 319°
2026-05-03 23:49 51.94366 22.55961 38020 ft 461 kts 319°
2026-05-03 23:49 51.99096 22.49005 38017 ft 461 kts 319°
2026-05-03 23:50 52.03067 22.43149 38017 ft 461 kts 319°
2026-05-03 23:50 52.08589 22.34981 38008 ft 461 kts 318°
2026-05-03 23:51 52.13306 22.27983 38011 ft 460 kts 318°
2026-05-03 23:51 52.18013 22.20979 38001 ft 460 kts 318°
2026-05-03 23:52 52.22745 22.13916 38006 ft 461 kts 318°
2026-05-03 23:52 52.27449 22.06874 37999 ft 461 kts 318°
2026-05-03 23:53 52.32159 21.99799 37993 ft 460 kts 318°
2026-05-03 23:53 52.36858 21.92720 37986 ft 460 kts 318°